Regional Weather Roundup
Issued by NWS

Home | Current Version | Previous Version | Text Only | Print | Product List | Glossary Off
Versions: 1 2 3 4 5 6 7 8 9 10 11 12 13 14 15 16 17 18 19 20 21 22 23 24 25 26 27 28 29 30 31 32 33 34 35 36 37 38 39 40 41 42 43 44 45 46 47 48 49 50

000
ASUS43 KMPX 252310
RWRMN
WEATHER ROUNDUP FOR MINNESOTA
NATIONAL WEATHER SERVICE TWIN CITIES/CHANHASSEN MN
500 PM CST TUE NOV 25 2014


NOTE: "FAIR" INDICATES FEW OR NO CLOUDS BELOW 12,000 FEET WITH NO
SIGNIFICANT WEATHER AND/OR OBSTRUCTIONS TO VISIBILITY. N/A MEANS
CURRENT SKY AND/OR WEATHER CONDITIONS ARE NOT AVAILABLE.

MNZ060>063-068>070-260000-
   Twin Cities Metro

CITY           SKY/WX    TMP DP  RH WIND       PRES   REMARKS
TWIN CITIES    CLOUDY    23  13  65 SE6       30.03F WCI  16
ST PAUL        CLOUDY    23  15  71 SE7       30.05F WCI  15
CRYSTAL        CLOUDY    24  12  60 SE3       30.02F
BLAINE         CLOUDY    25  16  68 SE5       30.03S WCI  19
LAKEVILLE      CLOUDY    23  16  74 SE3       30.02S
EDEN PRAIRIE   CLOUDY    24  12  60 SE3       30.01S
SOUTH ST PAUL  CLOUDY    24  16  71 SE3       30.04S
LAKE ELMO      CLOUDY    23  18  80 SE3       30.04F
$$
MNZ001>005-007-008-013>017-022>024-027-028-260000-
   Northwest Minnesota

CITY           SKY/WX    TMP DP  RH WIND       PRES   REMARKS
BEMIDJI        MOCLDY    19  11  72 E3        29.92S
HALLOCK        PTCLDY    18  10  73 N9        29.99R WCI   6
ROSEAU         CLOUDY    18  12  79 NE7       29.98R HAZE    WCI   8
WARROAD        FLURRIES  16  12  86 N5        29.98R WCI   9
THIEF RVR FALL CLOUDY    19  14  79 E5        29.96R WCI  13
CROOKSTON      CLOUDY    21  16  79 E8        29.97R WCI  12
FOSSTON        CLOUDY    19  16  86 NE7       29.94R WCI  10
DETROIT LAKES  MOCLDY    23  16  74 SE6       29.92R WCI  16
MOORHEAD       CLOUDY    25  19  80 SE8       29.92S WCI  16
PARK RAPIDS    CLOUDY    20  11  68 SE8       29.92F WCI  10
MAHNOMEN       CLOUDY    23  18  80 SE3       29.91S
$$
MNZ006-009>011-018-025>026-260000-
   North Central Minnesota

CITY           SKY/WX    TMP DP  RH WIND       PRES   REMARKS
BAUDETTE       FLURRIES  17  12  80 NE3       29.96R
INTL FALLS     CLOUDY    14   7  73 CALM      29.96R
WASKISH        CLOUDY    18  14  86 CALM      29.97R
BIG FORK       CLOUDY    19   7  58 CALM      29.95F
LONGVILLE      CLOUDY    18   9  68 SE5       29.95S WCI  11
GRAND RAPIDS   CLOUDY    18   3  53 SE3       29.95S
CRANE LAKE     MOCLDY    12   7  79 CALM      29.99R
ORR            MOCLDY    16   5  62 CALM      29.93S
COOK           CLOUDY    18   9  68 CALM      29.97R
WALKER         CLOUDY    20  12  70 CALM      29.94R
$$
MNZ012-019>021-037-260000-
   Northeast Minnesota

CITY           SKY/WX    TMP DP  RH WIND       PRES   REMARKS
DULUTH         PTCLDY    17   6  62 W7        29.96R WCI   8
ELY            PTCLDY    10   7  85 CALM      29.95S
HIBBING        CLOUDY    20   1  43 S5        29.96R WCI  13
EVELETH        MOCLDY    19   7  58 S5        29.97R WCI  13
DULUTH HARBOR  FAIR      21  10  63 CALM      30.03S
TWO HARBORS    PTCLDY    21  10  63 W5        29.96S WCI  15
SILVER BAY     PTCLDY    19  12  73 CALM      29.96R
GRAND MARAIS     N/A     21  13  71 NW5       30.01R WCI  15
G MARAIS ARPRT CLOUDY    14   3  62 CALM      29.93R
$$
MNZ029>031-032-039>041-046>048-054>057-064-260000-
   West Central Minnesota

CITY           SKY/WX    TMP DP  RH WIND       PRES   REMARKS
FERGUS FALLS   CLOUDY    23  12  63 SE9       29.95S WCI  13
WHEATON        CLOUDY    21  18  86 E10       29.93S WCI  10
MORRIS         CLOUDY    23  18  80 SE12      29.91S WCI  12
ALEXANDRIA     CLOUDY    20  11  68 SE10      29.93F WCI   9
ELBOW LAKE       N/A     22  13  70 SE9       29.92S WCI  11
WADENA         MOCLDY    19  10  68 SE8       29.92F WCI   9
GLENWOOD       MOCLDY    21  16  79 E9        29.93F WCI  11
APPLETON       CLOUDY    28  19  69 SE9       29.92S WCI  20
BENSON         CLOUDY    25  18  74 S9G16     29.93S WCI  15
ORTONVILLE     CLOUDY    27  18  69 E9        29.90S WCI  17
MADISON        MOCLDY    32  27  80 SE8       29.91S WCI  25
WILLMAR        CLOUDY    25  16  68 SE12      29.96F WCI  14
$$
MNZ033>034-036-042>043-049>051-058-059-260000-
   Central Minnesota

CITY           SKY/WX    TMP DP  RH WIND       PRES   REMARKS
ST CLOUD       CLOUDY    20  10  65 SE6       30.00S WCI  12
SAUK CENTRE    CLOUDY    19  11  71 SE7       29.95F WCI  10
PAYNESVILLE    CLOUDY    19  11  70 E8        29.97S WCI   9
AITKIN         MOCLDY    19   9  63 CALM      29.96R
PINE RIVER     CLOUDY    19   9  63 S6        29.98F WCI  11
BRAINERD       CLOUDY    18   7  62 S5        29.97S WCI  11
STAPLES        CLOUDY    18   9  68 CALM      29.95R
LONG PRAIRIE   MOCLDY    19  10  68 SE6       29.95S WCI  11
LITTLE FALLS   CLOUDY    19   9  63 SE6       29.98F WCI  11
LITCHFIELD     CLOUDY    25  12  58 SE6       29.98F WCI  18
BUFFALO        CLOUDY    22  10  60 E6        30.02F WCI  15
MAPLE LAKE     CLOUDY    22  14  69 SE7       30.01F WCI  14
$$
MNZ037-044-045-052-053-260000-
   East Central Minnesota

CITY           SKY/WX    TMP DP  RH WIND       PRES   REMARKS
PRINCETON      CLOUDY    19  12  73 CALM      30.01F
MORA           CLOUDY    19  10  68 S5        30.02F WCI  13
CAMBRIDGE      CLOUDY    21  10  63 SE5       30.00F WCI  15
RUSH CITY      CLOUDY    19  12  75 S5        30.03S WCI  12
MOOSE LAKE     PTCLDY    18  10  73 S3        29.98F
HINCKLEY       CLOUDY    19  14  79 CALM      30.01S
CLOQUET        CLOUDY    18   9  68 SW5       29.98R WCI  11
MCGREGOR       CLOUDY    19  10  68 S3        29.98S
$$
MNZ071>073-080-081-089-090-097-098-260000-
   Southwest Minnesota

CITY           SKY/WX    TMP DP  RH WIND       PRES   REMARKS
MONTEVIDEO     CLOUDY    28  21  74 SE9       29.94S WCI  20
GRANITE FALLS  MOCLDY    31  22  69 E7        29.94F WCI  24
CANBY          CLOUDY    31  25  80 SE6       29.91S WCI  25
MARSHALL       CLOUDY    30  19  64 SE6       29.92S WCI  24
REDWOOD FALLS  MOCLDY    30  17  58 SE10      29.94F WCI  21
OLIVIA         CLOUDY    28  18  64 SE8       29.94F WCI  20
PIPESTONE      CLOUDY    30  21  69 SE7       29.86F WCI  23
WINDOM           N/A     30  18  59 SE7       29.93F WCI  23
WORTHINGTON    MOCLDY    30  16  55 S9        29.92S WCI  22
JACKSON        PTCLDY    32  14  47 S10       29.95S WCI  24
TRACY          CLOUDY    32  22  65 S5        29.92R WCI  27
SLAYTON        MOCLDY    30  21  69 S7        29.91S WCI  23
$$
MNZ065>067-074>077-082>085-091>093-260000-
   South Central Minnesota

CITY           SKY/WX    TMP DP  RH WIND       PRES   REMARKS
MANKATO        CLOUDY    27  12  54 SE10      29.99F WCI  17
NEW ULM        PTCLDY    27  16  63 SE8       29.97F WCI  18
ST JAMES       PTCLDY    30  12  47 SE7       29.98S WCI  23
FAIRMONT       PTCLDY    28  12  50 SE10      29.97S WCI  19
GLENCOE        CLOUDY    26  15  63 E6        29.99F WCI  19
FARIBAULT      CLOUDY    25  16  68 SE8       30.02F WCI  16
OWATONNA       PTCLDY    21  14  73 SE5       30.02R WCI  15
WASECA         CLOUDY    25  14  63 SE7       30.03S WCI  17
ALBERT LEA     MOCLDY    25  12  58 S5        30.01S WCI  19
$$
MNZ078>079-086>088-094>096-260000-
   Southeast Minnesota

CITY           SKY/WX    TMP DP  RH WIND       PRES   REMARKS
ROCHESTER      CLEAR     20  13  74 S6        30.03R WCI  12
RED WING         N/A     25  16  68 CALM      30.05S
STANTON        CLOUDY    25  15  66 SE3       30.02F
DODGE CENTER   PTCLDY    19  16  86 S5        30.02S WCI  13
WINONA         CLOUDY    27  18  69 SE3       30.09F
AUSTIN         CLOUDY    25  14  63 S5        30.02S WCI  19
PRESTON        CLEAR     18  12  79 S5        30.04S WCI  11
$$
ABBREVIATIONS USED IN REMARKS
   TC - TEMPERATURES IN CELSIUS
  WCI - WIND CHILL INDEX
   HX - HEAT INDEX
  VSB - VISIBILITY
$$



USA.gov is the U.S. government's official web portal to all federal, state and local government web resources and services.